TITAN 3C TRANSTAGE DEB, 43447

Orbit data source: Space-Track

TITAN 3C TRANSTAGE DEB, 43447 is space debris in GEO originally from a launch on Sun, 09 Feb 1969 UTC launched from the Air Force Eastern Test Range (AFETR). Debris objects in space refer to the collection of defunct objects orbiting the Earth. Examples of debris include non-operational satellites, rocket bodies, and fragments generated from explosions, collisions, or faulty payload assembly.

Not visible in the next 10 days
Identifier
43447, 1969-013G
Orbit
GEO
Country
Flag of USUS
Related business
Manufacturer
Martin Marietta
Mission
Spacecraft
Bus & Motor
Unknown
Mass
Unknown
Launch date (UTC)
1969-02-09 (57 years ago)
Launch vehicle
Unknown
Launch site
Air Force Eastern Test Range (AFETR)
Object type
Payload
Rocket body
Debris
Shape & HBR
Unknown shape, 1.1 m
Radar Cross Section
Medium (>0.1 m² and <1 m²)

Expand to show TLE details & history
Last TLE update: 2 days ago

TLE from 2 days ago
0 TITAN 3C TRANSTAGE DEB
1 43447U 69013G   26169.08916490 -.00000244  00000-0  00000-0 0  9993
2 43447   1.2871  82.5634 0137584  23.8588 335.7211  0.97141591 29272
Epoch: 2026-06-18T02:08Z
TLE epoch observation values (Epoch: 2026-06-18T02:08:23.847Z)
Latitude
0.00002°
Longitude
143.06284°
Altitude
36,145.359 km
Speed
3.081 km/s
True Right ascension
05h 25m 59s
True Declination
0° 00' 00"
Sunlit
Object was in daylight at epoch
Visualization orbit readout
Latitude
Unknown
Longitude
Unknown
Altitude
Unknown
Speed
Unknown
Apparent Right ascension
Unknown
Apparent Declination
Unknown
Sunlit
N/A
Visualization observer readout
Local Sidereal Time
01:13:49
Azimuth
Unknown
Elevation
Unknown
Doppler factor
Unknown
Orbital elements
Apogee altitude
37,281.16 km
Perigee altitude
36,096.101 km
Semi-major axis
43,066.767 km
Eccentricity
0.01376
Inclination
1.2871°
RAAN
82.5634°
Arg. of periapsis
23.8588°
True anomaly
335.06253°
Mean anomaly
335.7211°
Eccentric anomaly
335.39286°
Mean motion
0.24285 °/min
Orbital period
1,482.43 mins
BSTAR
0
Loading maneuver chart data...
Computing Atmospheric mass density...

Documentation

Showing up to 5 results
|